Airfield :
LOGIN :

Register | Disclaimer

   EN    FR    IT 

 










Legend :    VFR   Marginal VFR   IFR   Intensive IFR   Very Intensive IFR
Visi :
Ceiling :
>= 8 km
>= 3000ft
5 to 8 km
1000 to 3000 ft
1500m to 5 km
500 to 1000 ft
800 to 1500m
200 to 500 ft
< 800m
< 200 ft
Symbols :   Thunderstorms  Fog  Heavy snow  Heavy precipitations  Wind > 20 kt
SIGMETs :     Misc.  Thunderstorms  Icing  Turbulence  Mountain Waves  Volcanic Ashes







- Airport Elevation : 277 ft
- IATA code : JER
- Download approach charts


EGJJ - Jersey

CURRENT METAR :
  • 211250Z 17008KT 9000 FEW004 11/08 Q1028

EXPIRED METARs :
  • 211220Z 13008KT 9999 FEW004 11/08 Q1027
  • 211150Z 17009KT 9000 SCT005 10/08 Q1027
  • 211120Z 16008KT 9999 FEW004 10/08 Q1027
  • 211050Z 16008KT 130V190 9000 SCT004 10/08 Q1027
  • 211020Z 16008KT 9000 SCT004 BKN013 09/08 Q1027

TAF TAF EGJJ
Valid from the 21 at 12:00 until the 21 at 21:00 UTC


211104Z 2112/2121 16009KT 9999 FEW005 SCT012
PROB40
TEMPO 2112/2114 5000 BR BKN005
ATIS : +44 1534 498 073
No reported NOTAMs for that airfield.



MET'MAP, your aeronautical weather chart ! - Copyright ORBIFLY December 2007 - Disclaimer

ORBIFLY MET'MAP TEAM :

Programming & Development : Alexandra Zaïnal
Concept & Development : Baudouin d'Aumeries
Co-Development & Prog : Marc-Olivier Méhu
Technical & hardware support : Manuel Goepfert

Contact : metmap@orbifly.com




SOURCES & CREDITS :

   NOAA